{"data":{"norad_id":52603,"epoch":"2026-09-20T03:59:12.878592Z","epoch_age_seconds":92102,"freshness":"FRESH","line1":"1 52603U 22052F   26263.16612128 -.00000023  00000+0  11029-4 0  9995","line2":"2 52603  53.1584 110.3939 0001245  80.1448 279.9694 15.31704860241230","mean_motion":15.3170486,"eccentricity":0.0001245,"inclination_deg":53.1584,"raan_deg":110.3939,"arg_perigee_deg":80.1448,"mean_anomaly_deg":279.9694,"bstar":1.1029e-5,"rev_number":24123,"period_min":94.012889663352,"perigee_km":469.87282447462,"apogee_km":471.57819123908,"semimajor_km":6848.8625078568,"source":"CELESTRAK","updated_at":"2026-09-20T09:00:40.068393Z"}}